User: anonymous   Login
Location: Unspecified
(0.0000°N, 0.0000°E)
Time: 05:40:09
(UTC+00:00)
Language:

CANX 3A (UNIBRITE) - Orbit

View from above orbital plane
View from above orbital plane
View from above satellite
View from above satellite

Ground track
Ground track

The orbit data is extracted from the following two-line orbital elements,

1 39092U 13009G   16042.28012331  .00000084  00000-0  45358-4 0  9990
2 39092  98.5879 244.5212 0008729 325.0460  35.0151 14.34826108154931
Epoch (UTC): 11 February 2016 06:43:22
Eccentricity: 0.0008729
inclination: 98.5879°
perigee height: 769 km
apogee height: 782 km
right ascension of ascending node: 244.5212°
argument of perigee: 325.0460°
revolutions per day: 14.34826108
mean anomaly at epoch: 35.0151°
orbit number at epoch: 15493

The dashed part of the orbit path shows where the satellite is in the earth's shadow,  

DLR